HALO-NET FF (48877 NORAD) Tracking and Keplerian Element Data

This shows tracking and keplerian element data for the satellite.

Feedback or suggestion? Click here.




ElementValue
Catalog48877
NameHALO-NET FF
Epoch Orbit1223
Epoch Day262.19186753
Epoch Year2021
RAAN283.2012
Inclination60.6872
Eccentricity0.0030944
Argument of Perigee349.6905
Mean Anonmoly52.083
Mean Motion15.18709776
Decay Rate1.818E-05
L11 48877U 21058G 21262.19186753 .00001818 00000-0 98689-4 0 9995
L22 48877 60.6872 283.2012 0030944 349.6905 52.0830 15.18709776 12236

Live tracking and technical data element details for HALO-NET FF (NORAD 48877). HALO-NET FF can be tracked NOW for your location showing map with azimuth and elevation plus other details from your city location.

Track the satellite on the map from your city or location and see movement details for azimuth, elevation, latitude, longitude, range, height, and movement on the map or in text.







IsCatalogInMostPopularTable: catalog: 48877, numindb: 16
Update: records affected: 1



GetName: 48877 HALO-NET FF

Hit Count: updated at: Fri, 24 Sep 2021 18:53:35 GMT